Regional Weather Roundup
Issued by NWS Upton, NY

Current Version | Previous Version | Text Only | Print | Product List | Glossary Off
Versions: 1 2 3 4 5 6 7 8 9 10 11 12 13 14 15 16 17 18 19 20 21 22 23 24 25 26
000 ASUS41 KOKX 271509 RWROKX REGIONAL WEATHER ROUNDUP NATIONAL WEATHER SERVICE NEW YORK NY 1100 AM EDT THU JUL 27 2017 NOTE: "FAIR" INDICATES FEW OR NO CLOUDS BELOW 12,000 FEET WITH NO SIGNIFICANT WEATHER AND/OR OBSTRUCTIONS TO VISIBILITY. NYZ071-072-176-178-NJZ106-104-271600- NEW YORK CITY METRO AREA CITY SKY/WX TMP DP RH WIND PRES REMARKS Central Park CLOUDY 74 65 73 MISG 30.04F Bronx Bot Gard N/A 75 61 60 W2 30.01F LaGuardia APRT CLOUDY 76 65 68 SW10 30.00F Kennedy INTL CLOUDY 73 66 78 S7 30.03F Breezy Point N/A 72 N/A N/A S5 N/A Newark/Liberty CLOUDY 74 65 73 SW7 30.01F Teterboro CLOUDY 76 64 66 VRB6 30.00F $$ NYZ177-179-078>081-271600- LONG ISLAND NEW YORK CITY SKY/WX TMP DP RH WIND PRES REMARKS Jones Beach N/A 72 N/A N/A SW3 N/A Matinecock PT N/A 72 N/A N/A SW6 N/A Farmingdale CLOUDY 74 62 66 SW8G17 30.02F MacArthur/ISP PTSUNNY 75 61 61 SW9 30.02F Shirley MOSUNNY 76 58 53 SW8 30.03F Mt Sinai Harb N/A N/A N/A N/A SW5 N/A Westhampton PTSUNNY 73 61 65 SW10G20 30.04F East Hampton FAIR 73 62 69 SW8 30.03F Montauk N/A 72 63 73 S6 30.05F $$ NYZ052-065-067-271600- HUDSON VALLEY CITY SKY/WX TMP DP RH WIND PRES REMARKS White Plains PTSUNNY 72 62 71 SW3 30.01F Larchmont Harb N/A 72 N/A N/A S12 N/A Croton O-T Hud N/A 70 N/A N/A SE2 N/A Newburgh CLOUDY 68 66 94 SW8 30.03F Montgomery CLOUDY 71 64 78 SW8 30.00F Poughkeepsie CLOUDY 70 63 78 S6 29.99F Albany LGT RAIN 65 63 93 S8 29.98F FOG $$ NJZ001-105-106-008-010-013-015-019>022-104-271600- NEW JERSEY CITY SKY/WX TMP DP RH WIND PRES REMARKS Newark/Liberty CLOUDY 74 65 73 SW7 30.01F Teterboro CLOUDY 76 64 66 VRB6 30.00F Caldwell CLOUDY 71 65 81 VRB6 30.01F Somerville CLOUDY 73 67 81 VRB5 30.00F Linden CLOUDY 74 64 70 CALM 30.01F Perth Amboy N/A 72 N/A N/A SW10 N/A Sussex CLOUDY 70 65 84 VRB3 30.01F Andover N/A 70 64 81 S6 30.02F Trenton CLOUDY 75 68 78 SW7 30.01F Millville CLOUDY 76 71 85 S7 30.02F Atlantic City CLOUDY 78 68 71 S8 30.02F Wrightstown PTSUNNY 77 68 73 SW9 29.99F Toms River CLOUDY 77 68 73 S9 30.03F Belmar CLOUDY 76 65 68 VRB7 30.03 $$ PAZ047>061-062-071-271600- EASTERN PENNSYLVANIA CITY SKY/WX TMP DP RH WIND PRES REMARKS Philadelphia CLOUDY 77 68 73 SW12 30.01F Allentown CLOUDY 73 65 75 SW3 30.02F Scranton LGT RAIN 72 67 84 W8 30.01F $$ CTZ002-004>006-009-010-012-RIZ004-006-007-MAZ004-011-015-271600- SOUTHERN NEW ENGLAND IN CT CITY SKY/WX TMP DP RH WIND PRES REMARKS Bradley INTL LGT RAIN 69 61 75 S8 30.00F Hartford CLOUDY N/A N/A N/A S8 30.00F Danbury CLOUDY 70 63 78 W6 30.03F Wtrbury/Oxford CLOUDY 68 59 73 VRB5 30.03F Bridgeport MOSUNNY 73 62 68 SW12 30.02F Meriden CLOUDY 71 62 73 S7 30.00F New Haven CLOUDY 71 63 75 VRB7 30.02F Chester PTSUNNY 72 57 60 S6 30.02F Groton CLOUDY 72 63 73 SW12 30.02F Wilimantic CLOUDY 72 61 68 SW6 30.02F IN RI CITY SKY/WX TMP DP RH WIND PRES REMARKS Providence PTSUNNY 73 60 63 SW8 30.02F Block Island CLOUDY 71 61 70 SW13 30.04F Westerly CLOUDY 72 62 71 SW9 30.04F IN MA CITY SKY/WX TMP DP RH WIND PRES REMARKS Boston PTSUNNY 71 57 61 SW18 29.98F Worcester CLOUDY 67 56 67 SW16 30.01F Westfield LGT RAIN 69 64 84 S7 29.99F Provincetown PTSUNNY 66 60 81 S9 30.02F Nantucket CLOUDY 66 61 84 S10 30.04F $$ ANZ330-335-338-340-345-350-353-355-271600- COASTAL MARINE OBSERVATIONS STATION/POSITION TIME SKY/WX TEMP WIND PRES VSBY WAVE AIR SEA DIR/SP/G HT/PER (UTC) (F) (DEG/KT/KT) (MB) (MI) (FT/S) NY HARB ENTRANCE 1450 71 73 210/ 10/ 12 1016.1 2/ 8 20 S FIRE ISLAND 1450 70 74 210/ 8/ 10 1016.5 2/ 9 GREAT SOUTH BAY 1400 70 75 230/ 8/ 10 N/A 23 SSW MONTAUK P 1350 69 71 1017.9 2/ 9 15 E BARNEGAT LI 1430 73 N/A 2/ 9 HUDSON CANYON 1450 70 71 250/ 6/ 6 1017.0 2/10 KINGS POINT 1424 73 72 250/ 8/ 10 1016.3 EXECUTION ROCKS 1445 73 200/ 8/ 10 N/A CENTRAL LI SOUND NOT AVBL EASTERN LI SOUND NOT AVBL ROBBINS REEF 1430 200/ 9/ 11 1017.1 $$ >>>>>>>>>>>>>>>>>>>>>>>>>>>> KEY <<<<<<<<<<<<<<<<<<<<<<<<<<< > < > SKY/WX - Sky Condition/Present Weather < > TMP - Temperature in Fahrenheit < > DP - Dew Point in Fahrenheit < > RH - Relative Humidity in Percent < > WIND - Direction (from) and Speed in MPH < > PRES - Mean Sea Level Pressure (inches of Hg) < > WCI - Wind Chill Index < > VSB - VISIBILITY IN MILES < > HX - HEAT INDEX < > TC - TEMPERATURE IN CELSIUS < > VRB - VARIABLE WIND DIRECTION < > < >>>>>>>>>>>>>>>>>>>>>>>>>>>> KEY <<<<<<<<<<<<<<<<<<<<<<<<<<<

USA.gov is the U.S. government's official web portal to all federal, state and local government web resources and services.